Hourly Weather Kozly

Today, 22 October, Thursday

Time Temperature Precipitation Wind Pressure Humidity
00:00 +4°C° 0 mm 1 mps 739 mmHg 98%
01:00 +4°C° 0 mm 1 mps 739 mmHg 98%
02:00 +4°C° 0 mm 1 mps 740 mmHg 97%
03:00 +3°C° 0 mm 2 mps 739 mmHg 97%
04:00 +3°C° 0 mm 2 mps 739 mmHg 97%
05:00 +3°C° 0 mm 2 mps 739 mmHg 98%
06:00 +3°C° 0 mm 2 mps 738 mmHg 96%
07:00 +3°C° 0 mm 3 mps 738 mmHg 95%
08:00 +3°C° 0 mm 3 mps 738 mmHg 94%
09:00 +4°C° 0.2 mm 4 mps 737 mmHg 93%
10:00 +4°C° 0.2 mm 4 mps 737 mmHg 91%
11:00 +5°C° 0.2 mm 4 mps 737 mmHg 90%
12:00 +5°C° 0.9 mm 4 mps 736 mmHg 91%
13:00 +5°C° 0.9 mm 4 mps 735 mmHg 92%
14:00 +5°C° 0.9 mm 5 mps 734 mmHg 93%
15:00 +6°C° 0.3 mm 5 mps 734 mmHg 93%
16:00 +6°C° 0.3 mm 5 mps 733 mmHg 93%
17:00 +6°C° 0.3 mm 5 mps 732 mmHg 93%
18:00 +7°C° 0.3 mm 5 mps 732 mmHg 93%
19:00 +7°C° 0.3 mm 4 mps 731 mmHg 93%
20:00 +8°C° 0.3 mm 4 mps 731 mmHg 93%
21:00 +9°C° 0.4 mm 5 mps 730 mmHg 91%
22:00 +9°C° 0.4 mm 5 mps 730 mmHg 90%
23:00 +10°C° 0.4 mm 6 mps 730 mmHg 89%

Tomorrow, 23 October, Friday

Time Temperature Precipitation Wind Pressure Humidity
00:00 +10°C° 0.2 mm 6 mps 730 mmHg 87%
01:00 +10°C° 0.2 mm 6 mps 731 mmHg 85%
02:00 +10°C° 0.2 mm 6 mps 731 mmHg 83%
03:00 +10°C° 0 mm 6 mps 731 mmHg 83%
04:00 +10°C° 0 mm 6 mps 732 mmHg 84%
05:00 +10°C° 0 mm 5 mps 732 mmHg 84%
06:00 +10°C° 0 mm 5 mps 732 mmHg 83%
07:00 +9°C° 0 mm 5 mps 732 mmHg 81%
08:00 +9°C° 0 mm 5 mps 732 mmHg 80%
09:00 +10°C° 0 mm 5 mps 732 mmHg 80%
10:00 +10°C° 0 mm 5 mps 732 mmHg 80%
11:00 +10°C° 0 mm 5 mps 732 mmHg 80%
12:00 +10°C° 0.8 mm 5 mps 732 mmHg 84%
13:00 +10°C° 0.8 mm 5 mps 732 mmHg 88%
14:00 +10°C° 0.8 mm 4 mps 731 mmHg 91%
15:00 +10°C° 0.7 mm 4 mps 731 mmHg 92%
16:00 +10°C° 0.7 mm 4 mps 731 mmHg 93%
17:00 +10°C° 0.7 mm 4 mps 730 mmHg 93%
18:00 +10°C° 0.2 mm 4 mps 730 mmHg 91%
19:00 +10°C° 0.2 mm 4 mps 730 mmHg 89%
20:00 +9°C° 0.2 mm 5 mps 730 mmHg 86%
21:00 +8°C° 0 mm 5 mps 731 mmHg 87%
22:00 +8°C° 0 mm 5 mps 731 mmHg 88%
23:00 +7°C° 0 mm 4 mps 731 mmHg 88%

Day after tomorrow, 24 October, Saturday

Time Temperature Precipitation Wind Pressure Humidity
00:00 +7°C° 0 mm 4 mps 732 mmHg 87%
01:00 +7°C° 0 mm 4 mps 732 mmHg 87%
02:00 +8°C° 0 mm 4 mps 733 mmHg 86%
03:00 +7°C° 0 mm 4 mps 733 mmHg 86%
04:00 +8°C° 0 mm 3 mps 733 mmHg 87%
05:00 +8°C° 0 mm 3 mps 733 mmHg 88%
06:00 +8°C° 0 mm 3 mps 734 mmHg 89%
07:00 +8°C° 0 mm 3 mps 734 mmHg 90%
08:00 +8°C° 0 mm 3 mps 734 mmHg 90%
09:00 +8°C° 0 mm 3 mps 734 mmHg 87%
10:00 +9°C° 0 mm 3 mps 735 mmHg 84%
11:00 +9°C° 0 mm 3 mps 735 mmHg 81%
12:00 +9°C° 0 mm 3 mps 735 mmHg 83%
13:00 +9°C° 0 mm 3 mps 735 mmHg 84%
14:00 +8°C° 0 mm 3 mps 735 mmHg 86%
15:00 +8°C° 0.1 mm 3 mps 735 mmHg 87%
16:00 +8°C° 0.1 mm 2 mps 735 mmHg 87%
17:00 +7°C° 0.1 mm 2 mps 735 mmHg 88%
18:00 +7°C° 0 mm 2 mps 735 mmHg 88%
19:00 +7°C° 0 mm 2 mps 735 mmHg 88%
20:00 +6°C° 0 mm 2 mps 735 mmHg 88%
21:00 +6°C° 0 mm 2 mps 735 mmHg 89%
22:00 +6°C° 0 mm 2 mps 735 mmHg 90%
23:00 +6°C° 0 mm 2 mps 735 mmHg 90%

, 25 October, Sunday

Time Temperature Precipitation Wind Pressure Humidity
00:00 +6°C° 0.2 mm 2 mps 735 mmHg 92%
01:00 +6°C° 0.2 mm 2 mps 734 mmHg 93%
02:00 +6°C° 0.2 mm 2 mps 734 mmHg 95%
03:00 +6°C° 0.4 mm 2 mps 734 mmHg 95%
04:00 +7°C° 0.4 mm 2 mps 734 mmHg 95%
05:00 +7°C° 0.4 mm 3 mps 734 mmHg 96%
06:00 +7°C° 0 mm 3 mps 735 mmHg 93%
07:00 +6°C° 0 mm 4 mps 735 mmHg 90%
08:00 +7°C° 0 mm 4 mps 735 mmHg 87%
09:00 +6°C° 0 mm 5 mps 736 mmHg 86%
10:00 +6°C° 0 mm 5 mps 737 mmHg 85%
11:00 +6°C° 0 mm 5 mps 737 mmHg 83%
12:00 +6°C° 0 mm 4 mps 738 mmHg 81%
13:00 +6°C° 0 mm 4 mps 739 mmHg 79%
14:00 +7°C° 0 mm 4 mps 739 mmHg 77%
15:00 +7°C° 0 mm 3 mps 740 mmHg 79%
16:00 +7°C° 0 mm 3 mps 740 mmHg 81%
17:00 +6°C° 0 mm 2 mps 741 mmHg 83%
18:00 +6°C° 0 mm 2 mps 741 mmHg 87%
19:00 +5°C° 0 mm 2 mps 742 mmHg 91%
20:00 +4°C° 0 mm 2 mps 742 mmHg 94%
21:00 +4°C° 0 mm 2 mps 743 mmHg 95%
22:00 +5°C° 0 mm 1 mps 743 mmHg 96%
23:00 +5°C° 0 mm 1 mps 743 mmHg 96%

25 October, Sunday

Time Temperature Precipitation Wind Pressure Humidity
00:00 +6°C° 0.2 mm 2 mps 735 mmHg 92%
01:00 +6°C° 0.2 mm 2 mps 734 mmHg 93%
02:00 +6°C° 0.2 mm 2 mps 734 mmHg 95%
03:00 +6°C° 0.4 mm 2 mps 734 mmHg 95%
04:00 +7°C° 0.4 mm 2 mps 734 mmHg 95%
05:00 +7°C° 0.4 mm 3 mps 734 mmHg 96%
06:00 +7°C° 0 mm 3 mps 735 mmHg 93%
07:00 +6°C° 0 mm 4 mps 735 mmHg 90%
08:00 +7°C° 0 mm 4 mps 735 mmHg 87%
09:00 +6°C° 0 mm 5 mps 736 mmHg 86%
10:00 +6°C° 0 mm 5 mps 737 mmHg 85%
11:00 +6°C° 0 mm 5 mps 737 mmHg 83%
12:00 +6°C° 0 mm 4 mps 738 mmHg 81%
13:00 +6°C° 0 mm 4 mps 739 mmHg 79%
14:00 +7°C° 0 mm 4 mps 739 mmHg 77%
15:00 +7°C° 0 mm 3 mps 740 mmHg 79%
16:00 +7°C° 0 mm 3 mps 740 mmHg 81%
17:00 +6°C° 0 mm 2 mps 741 mmHg 83%
18:00 +6°C° 0 mm 2 mps 741 mmHg 87%
19:00 +5°C° 0 mm 2 mps 742 mmHg 91%
20:00 +4°C° 0 mm 2 mps 742 mmHg 94%
21:00 +4°C° 0 mm 2 mps 743 mmHg 95%
22:00 +5°C° 0 mm 1 mps 743 mmHg 96%
23:00 +5°C° 0 mm 1 mps 743 mmHg 96%

26 October, Monday

Time Temperature Precipitation Wind Pressure Humidity
00:00 +5°C° 0 mm 1 mps 743 mmHg 96%
01:00 +4°C° 0 mm 1 mps 744 mmHg 96%
02:00 +4°C° 0 mm 1 mps 744 mmHg 97%
03:00 +4°C° 0 mm 1 mps 744 mmHg 96%
04:00 +4°C° 0 mm 1 mps 744 mmHg 96%
05:00 +4°C° 0 mm 1 mps 745 mmHg 96%
06:00 +5°C° 0 mm 1 mps 745 mmHg 95%
07:00 +5°C° 0 mm 1 mps 745 mmHg 94%
08:00 +5°C° 0 mm 1 mps 745 mmHg 93%
09:00 +5°C° 0 mm 2 mps 746 mmHg 89%
10:00 +6°C° 0 mm 2 mps 746 mmHg 86%
11:00 +8°C° 0 mm 2 mps 746 mmHg 82%
12:00 +8°C° 0 mm 2 mps 746 mmHg 80%
13:00 +8°C° 0 mm 2 mps 746 mmHg 79%
14:00 +9°C° 0 mm 2 mps 746 mmHg 78%
15:00 +8°C° 0 mm 2 mps 746 mmHg 82%
16:00 +7°C° 0 mm 2 mps 746 mmHg 87%
17:00 +6°C° 0 mm 2 mps 746 mmHg 92%
18:00 +5°C° 0 mm 2 mps 746 mmHg 92%
19:00 +5°C° 0 mm 2 mps 746 mmHg 93%
20:00 +4°C° 0 mm 2 mps 746 mmHg 94%
21:00 +4°C° 0 mm 2 mps 746 mmHg 94%
22:00 +4°C° 0 mm 2 mps 746 mmHg 94%
23:00 +4°C° 0 mm 2 mps 746 mmHg 94%

27 October, Tuesday

Time Temperature Precipitation Wind Pressure Humidity
00:00 +4°C° 0 mm 2 mps 746 mmHg 94%
01:00 +4°C° 0 mm 2 mps 746 mmHg 94%
02:00 +3°C° 0 mm 2 mps 746 mmHg 94%
03:00 +2°C° 0 mm 3 mps 746 mmHg 94%
04:00 +2°C° 0 mm 3 mps 746 mmHg 94%
05:00 +2°C° 0 mm 3 mps 746 mmHg 94%
06:00 +2°C° 0 mm 3 mps 746 mmHg 93%
07:00 +3°C° 0 mm 3 mps 745 mmHg 92%
08:00 +3°C° 0 mm 3 mps 745 mmHg 90%
09:00 +4°C° 0 mm 3 mps 745 mmHg 86%
10:00 +5°C° 0 mm 4 mps 745 mmHg 83%
11:00 +6°C° 0 mm 4 mps 745 mmHg 79%
12:00 +6°C° 0 mm 4 mps 745 mmHg 79%
13:00 +6°C° 0 mm 4 mps 745 mmHg 80%
14:00 +6°C° 0 mm 4 mps 745 mmHg 81%
15:00 +6°C° 0.1 mm 4 mps 744 mmHg 82%
16:00 +6°C° 0.1 mm 4 mps 744 mmHg 84%
17:00 +5°C° 0.1 mm 4 mps 744 mmHg 85%
18:00 +6°C° 0.2 mm 4 mps 744 mmHg 86%
19:00 +6°C° 0.2 mm 4 mps 744 mmHg 87%
20:00 +6°C° 0.2 mm 4 mps 744 mmHg 87%
21:00 +7°C° 0 mm 3 mps 744 mmHg 87%
22:00 +7°C° 0 mm 3 mps 743 mmHg 87%
23:00 +7°C° 0 mm 3 mps 743 mmHg 87%
Show more